Location: Bald Rock
(37.3738°N, 119.9354°W)
Time: 21:21:35
(UTC+00:00)

Cosmos 1939 Rocket - Pass Details

Date: 08 September 2024
Orbit: 509 x 550 km, 97.5° (Epoch: 12 October)

Event Time Altitude Azimuth Distance (km) Brightness Sun altitude
Rises 13:07:16 0° 1° (N) 2,732 6.5 -6.6°
Reaches altitude 10° 13:09:33 10° 351° (N) 1,837 5.5 -6.1°
Maximum altitude 13:13:07 32° 288° (WNW) 957 3.6 -5.4°
Drops below altitude 10° 13:16:40 10° 224° (SW) 1,828 5.0 -4.7°
Sets 13:18:56 0° 214° (SW) 2,717 5.9 -4.3°
